Location: ??? ???
(33.4974°N, 35.4618°E)
Time: 18:19:47
(UTC+00:00)

Cosmos 2082 - Pass Details

Date: 29 October 2020
Orbit: 832 x 857 km, 71.0° (Epoch: 29 November)

Event Time Altitude Azimuth Distance (km) Brightness Sun altitude
Rises 16:33:05 0° 340° (NNW) 3,432 7.1 -22.3°
Reaches altitude 10° 16:35:33 10° 342° (NNW) 2,493 6.3 -22.8°
Maximum altitude 16:41:18 80° 70° (ENE) 872 3.6 -24.0°
Enters shadow 16:43:45 36° 152° (SSE) 1,324 4.4 -24.5°
